Tracking 19562 objects as of 21-Mar-2019
HD Live streaming from Space Station
objects crossing your sky now

CZ-4B R/B

Track CZ-4B R/B now!
10-day predictions


NORAD ID: 43656
Int'l Code: 2018-081B
Perigee: 648.5 km
Apogee: 946.6 km
Inclination: 99.4 °
Period: 100.7 minutes
Semi major axis: 7168 km
RCS: Unknown
Launch date: October 24, 2018
Source: People's Republic of China (PRC)
Launch site: Taiyaun Space Center, China (TSC)

Note: This is a ROCKET BODY
aabbcc
Your satellite tracking list
Your tracking list is empty




NASA's NSSDC Master Catalog

Two Line Element Set (TLE):
1 43656U 18081B   19079.54722640 -.00000020  00000-0  12561-4 0  9990
2 43656  99.4467 102.6113 0207915 307.4909  50.7525 14.30407468 20952
Source of the keplerian elements: AFSPC